Current weather by "City, St" or "zip code"  
 

Current Conditions: Tupelo, Tupelo Regional Airport, MS

Fair


74.0 F

Last Updated on May 21 2022, 3:53 am CDT
Humidity: 79%
Wind Speed: S 8.1 mph
Barometer 29.95 in
Dewpoint: 66.9 F
Visibility: 10.00 mi
Precip: --
Heat Index: NA
Wind Chill: NA
Current conditions at:

Tupelo, Tupelo Regional Airport, MS (KTUP)

Lat: 34.26806 Lon: 88.77

Local Radar Image active severe weather and emergency alerts image image weather storm and storm spotter reports image weather observation monitoring service image
Local
Radar
Active
Alerts
Storm Reports Obs
Monitoring

Sign-up For Email & Text Message Weather Alert Notification Services



Advertise Here

Observation History for Tupelo, Tupelo Regional Airport, MS


Time Wind
(mph)
Vis
(mi)
Weather Precip (in) Temperature (F) Relative
Humidity
Wind
Chill
(F)
Heat
Index
(F)
Pressure
Air Dwpt altimeter
(in)
sea level
(mb)
Rmks
3:53 am CDT S 8.1 10.00 Fair -- 74.0 66.9 79% NA NA 29.95 1013.6
2:53 am CDT S 6.9 10.00 Fair -- 74.0 66.9 79% NA NA 29.94 1013.2
1:53 am CDT S 8.1 10.00 Fair -- 76.0 66.0 72% NA NA 29.93 1012.9
12:53 am CDT S 8.1 10.00 Fair -- 75.0 66.0 74% NA NA 29.91 1012.5
11:53 pm CDT S 6.9 10.00 Fair -- 75.0 66.0 74% NA NA 29.90 1012.0
10:53 pm CDT SE 5.8 10.00 Fair -- 76.0 66.0 72% NA NA 29.89 1011.7
9:53 pm CDT S 4.6 10.00 Fair -- 78.0 66.0 67% NA NA 29.87 1011.1
7:53 pm CDT S 9.2 10.00 Fair -- 84.0 64.9 53% NA 86 29.83 1009.7
6:53 pm CDT S 11.5 G 23.0 10.00 A Few Clouds Trace 88.0 64.0 45% NA 89 29.82 1009.4
4:53 pm CDT S 16.1 G 23.0 10.00 Light Rain -- 90.0 64.0 42% NA 91 29.81 1009.1
3:53 pm CDT S 16.1 G 25.3 10.00 Light Rain -- 90.0 64.9 44% NA 92 29.82 1009.2
2:53 pm CDT S 17.3 G 25.3 10.00 Light Rain -- 90.0 64.9 44% NA 92 29.82 1009.4
1:53 pm CDT S 18.4 G 25.3 10.00 Light Rain -- 89.0 64.9 45% NA 91 29.83 1009.7
10:53 am CDT S 21.9 G 27.6 10.00 Light Rain and Breezy -- 85.0 66.9 55% NA 88 29.85 1010.5
9:53 am CDT S 13.8 G 26.5 10.00 Light Rain Trace 82.0 68.0 63% NA 85 29.86 1010.7
8:53 am CDT S 13.8 G 26.5 10.00 Mostly Cloudy -- 79.0 69.1 72% NA NA 29.86 1010.7
7:53 am CDT S 10.4 10.00 Mostly Cloudy -- 76.0 68.0 77% NA NA 29.85 1010.4
6:53 am CDT S 10.4 10.00 Fair -- 73.0 68.0 84% NA NA 29.83 1009.7
4:53 am CDT S 8.1 10.00 Fair -- 72.0 66.0 82% NA NA 29.78 1008.1

Regional Weather Observation


Corinth, MS (KCRX)

Mostly Cloudy
73.0 F

Oxford, University-Oxford Airport, MS (KUOX)

Fair
72.0 F

Batesville Panola County, MS (KPMU)

Partly Cloudy
75.0 F

Olive Branch, Olive Branch Airport, MS (KOLV)

NULL
73.0 F

Monroe County Airport, MS (KM40)

Fair
73.0 F

Somerville - Fayette County Airport, TN (KFYE)

Overcast
75.0 F

Advertise Here


Advertise Here